Change the Weather History Date:

Sunday, May 4, 2014

  Actual Average Record
Temperature  
Mean Temperature 42 °F -  
Max Temperature 55 °F 70 °F 89 °F (2000)
Min Temperature 28 °F 43 °F 21 °F (1967)
Degree Days  
Heating Degree Days 24    
Moisture  
Dew Point 27 °F    
Average Humidity 55    
Maximum Humidity 93    
Minimum Humidity 31    
Precipitation  
Precipitation 0.00 in - - ()
Sea Level Pressure  
Sea Level Pressure 30.05 in    
Wind  
Wind Speed 6 mph (East)    
Max Wind Speed 12 mph    
Max Gust Speed 22 mph    
Visibility 10 miles    
Events      
Averages and records for this station are not official NWS values.
T = Trace of Precipitation, MM = Missing Value Source: NWS Daily Summary

Daily Weather History Graph

Daily Weather History Graph

Search for Another Location

Airport or City:

Trip Planner

Search our weather history database for the weather conditions in past years. The results will help you decide how hot, cold, wet, or windy it might be!

Date:

Astronomy

May. 04, 2014 Rise Set
Actual Time 6:06 AM CDT 8:32 PM CDT
Civil Twilight 5:33 AM CDT 9:05 PM CDT
Nautical Twilight 4:52 AM CDT 9:47 PM CDT
Astronomical Twilight 4:06 AM CDT 10:34 PM CDT
Moon 10:30 AM CDT (5/4) 12:39 AM CDT (5/4)
Length of Visible Light 15h 32m
Length of Day
14h 26m
Waxing Crescent, 28% of the Moon is Illuminated
May 4
Waxing Crescent
May 6
First Quarter
May 14
Full
May 21
Last Quarter
May 28
New

Hourly Weather History & Observations

Time (CDT) Temp. Windchill Dew Point Humidity Pressure Visibility Wind Dir Wind Speed Gust Speed Precip Events Conditions
12:12 AM 33.8 °F 27.0 °F 26.6 °F 75% 30.04 in 10.0 mi North 8.1 mph - N/A   Clear
12:33 AM 33.8 °F 26.4 °F 26.6 °F 75% 30.05 in 10.0 mi North 9.2 mph - N/A   Clear
12:52 AM 33.8 °F 28.6 °F 26.6 °F 75% 30.06 in 10.0 mi North 5.8 mph - N/A   Clear
1:13 AM 32.0 °F 26.4 °F 26.6 °F 80% 30.08 in 10.0 mi North 5.8 mph - N/A   Clear
1:33 AM 30.2 °F 24.3 °F 26.6 °F 86% 30.08 in 10.0 mi North 5.8 mph - N/A   Clear
1:52 AM 32.0 °F 26.4 °F 26.6 °F 80% 30.08 in 10.0 mi NNE 5.8 mph - N/A   Clear
2:13 AM 32.0 °F 24.8 °F 26.6 °F 80% 30.08 in 10.0 mi North 8.1 mph - N/A   Clear
2:33 AM 28.4 °F 22.2 °F 26.6 °F 93% 30.08 in 10.0 mi North 5.8 mph - N/A   Clear
2:52 AM 30.2 °F 23.4 °F 26.6 °F 86% 30.08 in 10.0 mi NNE 6.9 mph - N/A   Clear
3:13 AM 30.2 °F 22.6 °F 26.6 °F 86% 30.07 in 10.0 mi NNE 8.1 mph - N/A   Clear
3:33 AM 30.2 °F 24.3 °F 26.6 °F 86% 30.07 in 10.0 mi NNE 5.8 mph - N/A   Clear
3:52 AM 28.4 °F 22.2 °F 26.6 °F 93% 30.07 in 10.0 mi NE 5.8 mph - N/A   Clear
4:13 AM 28.4 °F 20.4 °F 26.6 °F 93% 30.06 in 10.0 mi NE 8.1 mph - N/A   Clear
4:52 AM 28.4 °F 22.2 °F 26.6 °F 93% 30.07 in 10.0 mi NE 5.8 mph - N/A   Clear
5:13 AM 28.4 °F 23.3 °F 26.6 °F 93% 30.07 in 10.0 mi NE 4.6 mph - N/A   Clear
5:32 AM 28.4 °F - 26.6 °F 93% 30.09 in 10.0 mi Calm Calm - N/A   Clear
5:52 AM 28.4 °F - 26.6 °F 93% 30.09 in 10.0 mi Calm Calm - N/A   Clear
6:13 AM 28.4 °F - 26.6 °F 93% 30.10 in 10.0 mi Calm Calm - N/A   Clear
6:32 AM 28.4 °F - 26.6 °F 93% 30.12 in 10.0 mi Calm Calm - N/A   Clear
6:52 AM 30.2 °F - 26.6 °F 86% 30.13 in 10.0 mi Calm Calm - N/A   Clear
7:13 AM 33.8 °F - 30.2 °F 87% 30.14 in 10.0 mi Calm Calm - N/A   Clear
7:32 AM 33.8 °F - 30.2 °F 87% 30.14 in 10.0 mi Calm Calm - N/A   Clear
7:52 AM 37.4 °F - 30.2 °F 75% 30.13 in 10.0 mi Calm Calm - N/A   Clear
8:13 AM 39.2 °F 33.6 °F 30.2 °F 70% 30.13 in 10.0 mi East 8.1 mph - N/A   Clear
8:53 AM 41.0 °F 35.2 °F 28.4 °F 61% 30.12 in 10.0 mi East 9.2 mph - N/A   Clear
9:12 AM 42.8 °F 38.6 °F 28.4 °F 57% 30.13 in 10.0 mi ESE 6.9 mph - N/A   Clear
9:32 AM 44.6 °F 40.2 °F 26.6 °F 49% 30.13 in 10.0 mi ESE 8.1 mph - N/A   Clear
9:53 AM 44.6 °F 39.2 °F 26.6 °F 49% 30.12 in 10.0 mi ESE 10.4 mph - N/A   Clear
10:12 AM 46.4 °F 41.9 °F 24.8 °F 43% 30.11 in 10.0 mi SE 9.2 mph - N/A   Clear
10:32 AM 44.6 °F 41.4 °F 24.8 °F 46% 30.11 in 10.0 mi ESE 5.8 mph - N/A   Clear
10:53 AM 46.4 °F 42.4 °F 24.8 °F 43% 30.11 in 10.0 mi East 8.1 mph - N/A   Clear
11:12 AM 48.2 °F - 24.8 °F 40% 30.10 in 10.0 mi East 8.1 mph - N/A   Clear
11:33 AM 48.2 °F - 24.8 °F 40% 30.10 in 10.0 mi SSE 5.8 mph - N/A   Clear
11:53 AM 48.2 °F - 23.0 °F 37% 30.10 in 10.0 mi ESE 11.5 mph - N/A   Clear
12:12 PM 50.0 °F - 21.2 °F 32% 30.10 in 10.0 mi ESE 8.1 mph - N/A   Clear
12:33 PM 50.0 °F - 24.8 °F 37% 30.08 in 10.0 mi ESE 9.2 mph - N/A   Clear
12:53 PM 51.8 °F - 24.8 °F 35% 30.07 in 10.0 mi South 11.5 mph - N/A   Clear
1:12 PM 51.8 °F - 24.8 °F 35% 30.07 in 10.0 mi ESE 9.2 mph 18.4 mph N/A   Clear
1:33 PM 53.6 °F - 24.8 °F 33% 30.07 in 10.0 mi SE 4.6 mph - N/A   Clear
1:53 PM 53.6 °F - 24.8 °F 33% 30.06 in 10.0 mi SE 5.8 mph - N/A   Clear
2:12 PM 53.6 °F - 24.8 °F 33% 30.06 in 10.0 mi SSE 4.6 mph - N/A   Scattered Clouds
2:33 PM 53.6 °F - 24.8 °F 33% 30.05 in 10.0 mi SE 9.2 mph - N/A   Clear
2:52 PM 53.6 °F - 24.8 °F 33% 30.04 in 10.0 mi ESE 8.1 mph - N/A   Clear
3:12 PM 55.4 °F - 24.8 °F 31% 30.03 in 10.0 mi SE 6.9 mph - N/A   Clear
3:33 PM 53.6 °F - 24.8 °F 33% 30.03 in 10.0 mi SSE 6.9 mph 21.9 mph N/A   Scattered Clouds
3:52 PM 55.4 °F - 24.8 °F 31% 30.01 in 10.0 mi SE 3.5 mph 9.2 mph N/A   Scattered Clouds
4:13 PM 55.4 °F - 24.8 °F 31% 30.01 in 10.0 mi SE 8.1 mph - N/A   Scattered Clouds
4:32 PM 53.6 °F - 24.8 °F 33% 30.00 in 10.0 mi SE 3.5 mph - N/A   Mostly Cloudy
4:52 PM 55.4 °F - 24.8 °F 31% 29.99 in 10.0 mi SE 6.9 mph - N/A   Overcast
5:13 PM 55.4 °F - 24.8 °F 31% 29.99 in 10.0 mi SSE 4.6 mph - N/A   Mostly Cloudy
5:32 PM 53.6 °F - 24.8 °F 33% 29.98 in 10.0 mi SE 3.5 mph - N/A   Scattered Clouds
5:52 PM 53.6 °F - 24.8 °F 33% 29.98 in 10.0 mi SE 8.1 mph - N/A   Scattered Clouds
6:13 PM 53.6 °F - 24.8 °F 33% 29.99 in 10.0 mi Calm Calm - N/A   Clear
6:32 PM 55.4 °F - 24.8 °F 31% 29.98 in 10.0 mi SE 8.1 mph - N/A   Mostly Cloudy
6:52 PM 53.6 °F - 24.8 °F 33% 29.97 in 10.0 mi SE 8.1 mph - N/A   Scattered Clouds
7:13 PM 53.6 °F - 24.8 °F 33% 29.97 in 10.0 mi SE 5.8 mph - N/A   Scattered Clouds
7:32 PM 53.6 °F - 24.8 °F 33% 29.97 in 10.0 mi SE 4.6 mph - N/A   Overcast
7:53 PM 53.6 °F - 26.6 °F 35% 29.96 in 10.0 mi SE 6.9 mph - N/A   Overcast
8:13 PM 53.6 °F - 26.6 °F 35% 29.97 in 10.0 mi ESE 4.6 mph - N/A   Overcast
8:32 PM 51.8 °F - 28.4 °F 41% 29.99 in 10.0 mi East 3.5 mph - N/A   Overcast
8:53 PM 51.8 °F - 28.4 °F 41% 30.00 in 10.0 mi Calm Calm - N/A   Overcast
9:13 PM 51.8 °F - 28.4 °F 41% 30.01 in 10.0 mi Calm Calm - N/A   Overcast
9:32 PM 51.8 °F - 28.4 °F 41% 30.00 in 10.0 mi Calm Calm - N/A   Overcast
9:53 PM 51.8 °F - 30.2 °F 44% 30.01 in 10.0 mi Calm Calm - N/A   Overcast
10:13 PM 50.0 °F - 30.2 °F 47% 30.01 in 10.0 mi Calm Calm - N/A   Overcast
10:32 PM 48.2 °F - 32.0 °F 54% 30.00 in 10.0 mi Calm Calm - N/A   Overcast
10:53 PM 48.2 °F - 32.0 °F 54% 29.99 in 10.0 mi ESE 3.5 mph - N/A   Overcast
11:13 PM 48.2 °F - 32.0 °F 54% 29.99 in 10.0 mi Calm Calm - N/A   Overcast
11:32 PM 48.2 °F - 33.8 °F 58% 29.98 in 10.0 mi SE 3.5 mph - N/A   Overcast
11:53 PM 46.4 °F 45.2 °F 33.8 °F 62% 30.01 in 10.0 mi North 3.5 mph - N/A   Overcast